Time,TemperatureF,DewpointF,PressureIn,WindDirection,WindDirectionDegrees,WindSpeedMPH,WindSpeedGustMPH,Humidity,HourlyPrecipIn,Conditions,Clouds,dailyrainin,SoftwareType,DateUTC
2013-04-29 00:00:00,57.6,37.5,30.16,SE,126,2.0,2.0,47,0.00,,,0.00,Wunderground v.1.15,2013-04-29 04:00:00,
2013-04-29 00:10:00,56.7,37.2,30.16,SE,145,1.0,1.0,48,0.00,,,0.00,Wunderground v.1.15,2013-04-29 04:10:00,
2013-04-29 00:20:00,56.2,37.8,30.16,SE,143,0.0,0.0,50,0.00,,,0.00,Wunderground v.1.15,2013-04-29 04:20:00,
2013-04-29 00:30:00,55.6,38.2,30.16,SE,143,0.0,0.0,52,0.00,,,0.00,Wunderground v.1.15,2013-04-29 04:30:00,
2013-04-29 00:40:00,55.3,38.0,30.17,SE,143,0.0,0.0,52,0.00,,,0.00,Wunderground v.1.15,2013-04-29 04:40:00,
2013-04-29 00:50:00,55.1,37.8,30.17,SE,143,0.0,0.0,52,0.00,,,0.00,Wunderground v.1.15,2013-04-29 04:50:00,
2013-04-29 00:59:00,55.1,37.3,30.17,SE,143,0.0,0.0,51,0.00,,,0.00,Wunderground v.1.15,2013-04-29 04:59:00,
2013-04-29 01:10:00,55.0,37.7,30.17,SE,131,1.0,1.0,52,0.00,,,0.00,Wunderground v.1.15,2013-04-29 05:10:00,
2013-04-29 01:20:00,55.0,37.2,30.17,SE,131,0.0,10.0,51,0.00,,,0.00,Wunderground v.1.15,2013-04-29 05:20:00,
2013-04-29 01:30:00,54.7,36.9,30.17,SE,131,0.0,10.0,51,0.00,,,0.00,Wunderground v.1.15,2013-04-29 05:30:00,
2013-04-29 01:39:00,54.8,36.5,30.17,SE,131,0.0,10.0,50,0.00,,,0.00,Wunderground v.1.15,2013-04-29 05:39:00,
2013-04-29 01:50:00,54.8,36.0,30.17,SE,131,0.0,10.0,49,0.00,,,0.00,Wunderground v.1.15,2013-04-29 05:50:00,
2013-04-29 02:00:00,54.8,36.0,30.17,SE,131,0.0,10.0,49,0.00,,,0.00,Wunderground v.1.15,2013-04-29 06:00:00,
2013-04-29 02:10:00,54.7,35.9,30.16,SE,131,0.0,10.0,49,0.00,,,0.00,Wunderground v.1.15,2013-04-29 06:10:00,
2013-04-29 02:20:00,54.4,36.1,30.16,SE,131,0.0,10.0,50,0.00,,,0.00,Wunderground v.1.15,2013-04-29 06:20:00,
2013-04-29 02:30:00,53.9,35.2,30.16,SE,131,0.0,10.0,49,0.00,,,0.00,Wunderground v.1.15,2013-04-29 06:30:00,
2013-04-29 02:39:00,53.8,36.1,30.16,SE,131,0.0,10.0,51,0.00,,,0.00,Wunderground v.1.15,2013-04-29 06:39:00,
2013-04-29 02:50:00,53.5,35.3,30.15,SE,131,0.0,10.0,50,0.00,,,0.00,Wunderground v.1.15,2013-04-29 06:50:00,
2013-04-29 03:00:00,53.8,35.1,30.15,ENE,71,1.0,10.0,49,0.00,,,0.00,Wunderground v.1.15,2013-04-29 07:00:00,
2013-04-29 03:10:00,53.6,35.4,30.15,ENE,71,0.0,10.0,50,0.00,,,0.00,Wunderground v.1.15,2013-04-29 07:10:00,
2013-04-29 03:20:00,53.6,34.9,30.16,ENE,71,0.0,10.0,49,0.00,,,0.00,Wunderground v.1.15,2013-04-29 07:20:00,
2013-04-29 03:30:00,53.6,34.9,30.16,ENE,71,0.0,10.0,49,0.00,,,0.00,Wunderground v.1.15,2013-04-29 07:30:00,
2013-04-29 03:39:00,53.2,35.0,30.16,ENE,71,0.0,10.0,50,0.00,,,0.00,Wunderground v.1.15,2013-04-29 07:39:00,
2013-04-29 03:49:00,53.2,34.5,30.17,ENE,71,0.0,10.0,49,0.00,,,0.00,Wunderground v.1.15,2013-04-29 07:49:00,
2013-04-29 04:00:00,53.3,33.6,30.17,East,100,1.0,10.0,47,0.00,,,0.00,Wunderground v.1.15,2013-04-29 08:00:00,
2013-04-29 04:10:00,53.6,33.8,30.17,ESE,121,1.0,1.0,47,0.00,,,0.00,Wunderground v.1.15,2013-04-29 08:10:00,
2013-04-29 04:19:00,53.6,33.8,30.17,ESE,121,1.0,1.0,47,0.00,,,0.00,Wunderground v.1.15,2013-04-29 08:19:00,
2013-04-29 04:29:00,53.6,34.4,30.17,ESE,117,1.0,10.0,48,0.00,,,0.00,Wunderground v.1.15,2013-04-29 08:29:00,
2013-04-29 04:40:00,53.8,32.9,30.17,ESE,105,1.0,10.0,45,0.00,,,0.00,Wunderground v.1.15,2013-04-29 08:40:00,
2013-04-29 04:50:00,53.8,33.5,30.17,East,93,2.0,2.0,46,0.00,,,0.00,Wunderground v.1.15,2013-04-29 08:50:00,
2013-04-29 05:00:00,53.6,32.2,30.17,ESE,112,1.0,10.0,44,0.00,,,0.00,Wunderground v.1.15,2013-04-29 09:00:00,
2013-04-29 05:09:00,53.6,31.6,30.17,ESE,112,2.0,10.0,43,0.00,,,0.00,Wunderground v.1.15,2013-04-29 09:09:00,
2013-04-29 05:19:00,53.6,31.6,30.17,SE,126,2.0,10.0,43,0.00,,,0.00,Wunderground v.1.15,2013-04-29 09:19:00,
2013-04-29 05:30:00,53.5,31.0,30.17,East,84,2.0,2.0,42,0.00,,,0.00,Wunderground v.1.15,2013-04-29 09:30:00,
2013-04-29 05:40:00,53.5,31.5,30.17,SE,135,1.0,10.0,43,0.00,,,0.00,Wunderground v.1.15,2013-04-29 09:40:00,
2013-04-29 05:49:00,53.3,30.8,30.18,ESE,114,2.0,2.0,42,0.00,,,0.00,Wunderground v.1.15,2013-04-29 09:49:00,
2013-04-29 06:00:00,53.1,31.7,30.18,ESE,113,0.0,10.0,44,0.00,,,0.00,Wunderground v.1.15,2013-04-29 10:00:00,
2013-04-29 06:10:00,52.9,31.6,30.18,ESE,114,0.0,0.0,44,0.00,,,0.00,Wunderground v.1.15,2013-04-29 10:10:00,
2013-04-29 06:20:00,52.9,32.1,30.18,ESE,114,0.0,0.0,45,0.00,,,0.00,Wunderground v.1.15,2013-04-29 10:20:00,
2013-04-29 06:30:00,52.8,32.6,30.18,ESE,114,0.0,0.0,46,0.00,,,0.00,Wunderground v.1.15,2013-04-29 10:30:00,
2013-04-29 06:39:00,52.8,32.6,30.18,ESE,114,0.0,0.0,46,0.00,,,0.00,Wunderground v.1.15,2013-04-29 10:39:00,
2013-04-29 06:49:00,52.3,34.2,30.19,ESE,114,0.0,0.0,50,0.00,,,0.00,Wunderground v.1.15,2013-04-29 10:49:00,
2013-04-29 07:00:00,52.0,32.4,30.19,ESE,114,0.0,0.0,47,0.00,,,0.00,Wunderground v.1.15,2013-04-29 11:00:00,
2013-04-29 07:10:00,52.5,32.8,30.19,ESE,114,0.0,8.0,47,0.00,,,0.00,Wunderground v.1.15,2013-04-29 11:10:00,
2013-04-29 07:19:00,52.8,34.2,30.20,ESE,114,0.0,8.0,49,0.00,,,0.00,Wunderground v.1.15,2013-04-29 11:19:00,
2013-04-29 07:30:00,53.1,31.7,30.20,ESE,114,0.0,8.0,44,0.00,,,0.00,Wunderground v.1.15,2013-04-29 11:30:00,
2013-04-29 07:39:00,54.2,33.9,30.20,ESE,114,0.0,8.0,46,0.00,,,0.00,Wunderground v.1.15,2013-04-29 11:39:00,
2013-04-29 07:50:00,54.8,33.3,30.20,ESE,114,1.0,1.0,44,0.00,,,0.00,Wunderground v.1.15,2013-04-29 11:50:00,
2013-04-29 08:00:00,55.1,33.6,30.20,ESE,114,0.0,8.0,44,0.00,,,0.00,Wunderground v.1.15,2013-04-29 12:00:00,
2013-04-29 08:10:00,55.3,34.3,30.20,ESE,114,0.0,8.0,45,0.00,,,0.00,Wunderground v.1.15,2013-04-29 12:10:00,
2013-04-29 08:19:00,55.3,38.0,30.20,East,83,0.0,8.0,52,0.00,,,0.00,Wunderground v.1.15,2013-04-29 12:19:00,
2013-04-29 08:29:00,55.3,36.5,30.20,East,83,0.0,8.0,49,0.00,,,0.00,Wunderground v.1.15,2013-04-29 12:29:00,
2013-04-29 08:40:00,55.4,36.0,30.20,East,82,0.0,8.0,48,0.00,,,0.00,Wunderground v.1.15,2013-04-29 12:40:00,
2013-04-29 08:50:00,56.0,36.6,30.20,East,83,0.0,8.0,48,0.00,,,0.00,Wunderground v.1.15,2013-04-29 12:50:00,
2013-04-29 09:00:00,57.0,37.5,30.20,SE,126,1.0,1.0,48,0.00,,,0.00,Wunderground v.1.15,2013-04-29 13:00:00,
2013-04-29 09:09:00,58.1,37.4,30.19,East,101,2.0,8.0,46,0.00,,,0.00,Wunderground v.1.15,2013-04-29 13:09:00,
2013-04-29 09:20:00,59.0,39.3,30.19,SSE,149,2.0,2.0,48,0.00,,,0.00,Wunderground v.1.15,2013-04-29 13:20:00,
2013-04-29 09:30:00,59.6,38.8,30.19,ESE,104,3.0,3.0,46,0.00,,,0.00,Wunderground v.1.15,2013-04-29 13:30:00,
2013-04-29 09:39:00,59.8,39.5,30.19,East,97,4.0,4.0,47,0.00,,,0.00,Wunderground v.1.15,2013-04-29 13:39:00,
2013-04-29 09:50:00,59.9,39.1,30.19,ESE,121,3.0,3.0,46,0.00,,,0.00,Wunderground v.1.15,2013-04-29 13:50:00,
2013-04-29 10:00:00,59.9,39.6,30.19,East,80,4.0,8.0,47,0.00,,,0.00,Wunderground v.1.15,2013-04-29 14:00:00,
2013-04-29 10:10:00,61.3,42.5,30.18,South,169,4.0,8.0,50,0.00,,,0.00,Wunderground v.1.15,2013-04-29 14:10:00,
2013-04-29 10:19:00,62.6,39.2,30.18,SE,131,4.0,8.0,42,0.00,,,0.00,Wunderground v.1.15,2013-04-29 14:19:00,
2013-04-29 10:30:00,62.9,39.4,30.18,SSE,149,6.0,6.0,42,0.00,,,0.00,Wunderground v.1.15,2013-04-29 14:30:00,
2013-04-29 10:40:00,62.1,38.1,30.18,SE,131,6.0,6.0,41,0.00,,,0.00,Wunderground v.1.15,2013-04-29 14:40:00,
2013-04-29 10:50:00,62.4,39.0,30.18,SE,131,3.0,8.0,42,0.00,,,0.00,Wunderground v.1.15,2013-04-29 14:50:00,
2013-04-29 10:59:00,62.6,39.2,30.18,ESE,110,4.0,4.0,42,0.00,,,0.00,Wunderground v.1.15,2013-04-29 14:59:00,
2013-04-29 11:10:00,62.9,38.8,30.18,SE,141,2.0,8.0,41,0.00,,,0.00,Wunderground v.1.15,2013-04-29 15:10:00,
2013-04-29 11:20:00,63.5,38.7,30.17,South,176,3.0,8.0,40,0.00,,,0.00,Wunderground v.1.15,2013-04-29 15:20:00,
2013-04-29 11:30:00,64.3,40.7,30.17,ESE,104,4.0,8.0,42,0.00,,,0.00,Wunderground v.1.15,2013-04-29 15:30:00,
2013-04-29 11:40:00,63.7,38.3,30.17,ESE,115,6.0,10.0,39,0.00,,,0.00,Wunderground v.1.15,2013-04-29 15:40:00,
2013-04-29 11:50:00,63.4,40.5,30.17,SE,143,6.0,6.0,43,0.00,,,0.00,Wunderground v.1.15,2013-04-29 15:50:00,
2013-04-29 11:59:00,63.2,38.5,30.17,SE,131,3.0,8.0,40,0.00,,,0.00,Wunderground v.1.15,2013-04-29 15:59:00,
2013-04-29 12:10:00,64.3,40.1,30.16,WNW,292,3.0,3.0,41,0.00,,,0.00,Wunderground v.1.15,2013-04-29 16:10:00,
2013-04-29 12:20:00,65.2,39.6,30.16,ESE,121,3.0,3.0,39,0.00,,,0.00,Wunderground v.1.15,2013-04-29 16:20:00,
2013-04-29 12:30:00,65.2,40.3,30.16,South,170,4.0,4.0,40,0.00,,,0.00,Wunderground v.1.15,2013-04-29 16:30:00,
2013-04-29 12:39:00,65.5,39.2,30.16,East,99,4.0,7.0,38,0.00,,,0.00,Wunderground v.1.15,2013-04-29 16:39:00,
2013-04-29 12:50:00,64.8,41.2,30.16,ESE,121,3.0,6.0,42,0.00,,,0.00,Wunderground v.1.15,2013-04-29 16:50:00,
2013-04-29 13:00:00,64.0,39.2,30.16,SE,139,3.0,3.0,40,0.00,,,0.00,Wunderground v.1.15,2013-04-29 17:00:00,
2013-04-29 13:10:00,63.4,40.5,30.15,SE,135,2.0,2.0,43,0.00,,,0.00,Wunderground v.1.15,2013-04-29 17:10:00,
2013-04-29 13:19:00,63.2,41.5,30.15,East,83,2.0,18.0,45,0.00,,,0.00,Wunderground v.1.15,2013-04-29 17:19:00,
2013-04-29 13:30:00,62.6,40.9,30.15,SE,136,2.0,2.0,45,0.00,,,0.00,Wunderground v.1.15,2013-04-29 17:30:00,
2013-04-29 13:40:00,62.1,42.2,30.15,SE,135,2.0,18.0,48,0.00,,,0.00,Wunderground v.1.15,2013-04-29 17:40:00,
2013-04-29 13:50:00,61.5,41.6,30.16,SE,136,2.0,2.0,48,0.00,,,0.00,Wunderground v.1.15,2013-04-29 17:50:00,
2013-04-29 14:00:00,61.2,41.9,30.16,SE,136,1.0,18.0,49,0.00,,,0.00,Wunderground v.1.15,2013-04-29 18:00:00,
2013-04-29 14:10:00,60.7,41.4,30.16,ESE,102,2.0,18.0,49,0.00,,,0.00,Wunderground v.1.15,2013-04-29 18:10:00,
2013-04-29 14:20:00,60.2,41.5,30.16,ESE,116,3.0,18.0,50,0.00,,,0.00,Wunderground v.1.15,2013-04-29 18:20:00,
2013-04-29 14:30:00,59.9,42.7,30.16,SE,137,3.0,3.0,53,0.00,,,0.00,Wunderground v.1.15,2013-04-29 18:30:00,
2013-04-29 14:40:00,59.9,43.2,30.16,ESE,116,1.0,1.0,54,0.00,,,0.00,Wunderground v.1.15,2013-04-29 18:40:00,
2013-04-29 14:50:00,59.8,42.6,30.16,SE,139,2.0,18.0,53,0.00,,,0.00,Wunderground v.1.15,2013-04-29 18:50:00,
2013-04-29 14:59:00,59.8,43.1,30.16,South,177,1.0,1.0,54,0.00,,,0.00,Wunderground v.1.15,2013-04-29 18:59:00,
2013-04-29 15:10:00,59.6,42.9,30.16,SSE,159,1.0,1.0,54,0.00,,,0.00,Wunderground v.1.15,2013-04-29 19:10:00,
2013-04-29 15:20:00,59.5,43.8,30.16,SSE,147,1.0,1.0,56,0.00,,,0.00,Wunderground v.1.15,2013-04-29 19:20:00,
2013-04-29 15:30:00,59.6,43.4,30.16,ESE,121,1.0,18.0,55,0.00,,,0.00,Wunderground v.1.15,2013-04-29 19:30:00,
2013-04-29 15:40:00,59.5,42.8,30.16,SE,141,2.0,2.0,54,0.00,,,0.00,Wunderground v.1.15,2013-04-29 19:40:00,
2013-04-29 15:50:00,59.8,43.1,30.16,SSE,165,1.0,18.0,54,0.00,,,0.00,Wunderground v.1.15,2013-04-29 19:50:00,
2013-04-29 16:00:00,59.5,42.8,30.16,ESE,115,2.0,2.0,54,0.00,,,0.00,Wunderground v.1.15,2013-04-29 20:00:00,
2013-04-29 16:09:00,59.3,42.6,30.15,SE,139,2.0,2.0,54,0.00,,,0.00,Wunderground v.1.15,2013-04-29 20:09:00,
2013-04-29 16:20:00,59.5,42.3,30.15,SE,131,2.0,2.0,53,0.00,,,0.00,Wunderground v.1.15,2013-04-29 20:20:00,
2013-04-29 16:30:00,59.8,42.1,30.15,East,99,1.0,18.0,52,0.00,,,0.00,Wunderground v.1.15,2013-04-29 20:30:00,
2013-04-29 16:40:00,59.9,40.7,30.15,SSE,158,2.0,18.0,49,0.00,,,0.00,Wunderground v.1.15,2013-04-29 20:40:00,
2013-04-29 16:49:00,60.2,40.4,30.15,ESE,110,3.0,18.0,48,0.00,,,0.00,Wunderground v.1.15,2013-04-29 20:49:00,
2013-04-29 17:00:00,60.1,39.2,30.15,SSE,151,4.0,18.0,46,0.00,,,0.00,Wunderground v.1.15,2013-04-29 21:00:00,
2013-04-29 17:09:00,59.9,37.9,30.15,SSE,160,4.0,18.0,44,0.00,,,0.00,Wunderground v.1.15,2013-04-29 21:09:00,
2013-04-29 17:20:00,60.1,38.7,30.15,ESE,112,4.0,4.0,45,0.00,,,0.00,Wunderground v.1.15,2013-04-29 21:20:00,
2013-04-29 17:30:00,59.9,37.3,30.15,SE,131,3.0,18.0,43,0.00,,,0.00,Wunderground v.1.15,2013-04-29 21:30:00,
2013-04-29 17:39:00,59.9,38.5,30.16,SE,135,3.0,3.0,45,0.00,,,0.00,Wunderground v.1.15,2013-04-29 21:39:00,
2013-04-29 17:49:00,59.9,37.3,30.16,SSE,149,3.0,18.0,43,0.00,,,0.00,Wunderground v.1.15,2013-04-29 21:49:00,
2013-04-29 18:00:00,59.9,37.9,30.16,East,97,2.0,2.0,44,0.00,,,0.00,Wunderground v.1.15,2013-04-29 22:00:00,
2013-04-29 18:10:00,59.8,36.0,30.16,SE,126,3.0,3.0,41,0.00,,,0.00,Wunderground v.1.15,2013-04-29 22:10:00,
2013-04-29 18:20:00,59.5,36.4,30.16,SSE,155,1.0,1.0,42,0.00,,,0.00,Wunderground v.1.15,2013-04-29 22:20:00,
2013-04-29 18:30:00,59.3,36.8,30.16,SE,141,2.0,3.0,43,0.00,,,0.00,Wunderground v.1.15,2013-04-29 22:30:00,
2013-04-29 18:40:00,59.0,37.1,30.17,SE,138,2.0,2.0,44,0.00,,,0.00,Wunderground v.1.15,2013-04-29 22:40:00,
2013-04-29 18:50:00,58.9,37.6,30.17,SE,135,1.0,7.0,45,0.00,,,0.00,Wunderground v.1.15,2013-04-29 22:50:00,
2013-04-29 18:59:00,58.7,37.4,30.17,SE,126,2.0,2.0,45,0.00,,,0.00,Wunderground v.1.15,2013-04-29 22:59:00,
2013-04-29 19:10:00,58.4,37.1,30.17,ESE,116,1.0,1.0,45,0.00,,,0.00,Wunderground v.1.15,2013-04-29 23:10:00,
2013-04-29 19:20:00,58.4,36.6,30.17,ESE,113,1.0,10.0,44,0.00,,,0.00,Wunderground v.1.15,2013-04-29 23:20:00,
2013-04-29 19:30:00,58.3,36.5,30.17,SSE,156,2.0,10.0,44,0.00,,,0.00,Wunderground v.1.15,2013-04-29 23:30:00,
2013-04-29 19:40:00,57.8,38.2,30.17,ESE,112,3.0,3.0,48,0.00,,,0.00,Wunderground v.1.15,2013-04-29 23:40:00,
2013-04-29 19:50:00,57.3,38.3,30.17,ESE,114,2.0,2.0,49,0.00,,,0.00,Wunderground v.1.15,2013-04-29 23:50:00,
2013-04-29 20:00:00,57.3,37.8,30.17,SSE,147,2.0,2.0,48,0.00,,,0.00,Wunderground v.1.15,2013-04-30 00:00:00,
2013-04-29 20:10:00,57.0,37.5,30.18,SE,136,1.0,1.0,48,0.00,,,0.00,Wunderground v.1.15,2013-04-30 00:10:00,
2013-04-29 20:20:00,56.7,38.8,30.18,SE,142,0.0,10.0,51,0.00,,,0.00,Wunderground v.1.15,2013-04-30 00:20:00,
2013-04-29 20:30:00,56.3,40.3,30.18,SSE,149,1.0,1.0,55,0.00,,,0.00,Wunderground v.1.15,2013-04-30 00:30:00,
2013-04-29 20:40:00,55.7,40.7,30.19,SSE,148,0.0,10.0,57,0.00,,,0.00,Wunderground v.1.15,2013-04-30 00:40:00,
2013-04-29 20:50:00,55.7,38.3,30.19,SE,131,1.0,1.0,52,0.00,,,0.00,Wunderground v.1.15,2013-04-30 00:50:00,
2013-04-29 21:00:00,55.6,38.7,30.19,SE,131,0.0,10.0,53,0.00,,,0.00,Wunderground v.1.15,2013-04-30 01:00:00,
2013-04-29 21:10:00,55.4,39.5,30.20,SE,131,0.0,10.0,55,0.00,,,0.00,Wunderground v.1.15,2013-04-30 01:10:00,
2013-04-29 21:20:00,55.4,38.5,30.20,SE,126,0.0,10.0,53,0.00,,,0.00,Wunderground v.1.15,2013-04-30 01:20:00,
2013-04-29 21:29:00,55.3,39.4,30.20,SE,126,0.0,10.0,55,0.00,,,0.00,Wunderground v.1.15,2013-04-30 01:29:00,
2013-04-29 21:40:00,55.3,38.4,30.21,SE,126,1.0,1.0,53,0.00,,,0.00,Wunderground v.1.15,2013-04-30 01:40:00,
2013-04-29 21:50:00,55.4,38.1,30.21,SSE,163,0.0,10.0,52,0.00,,,0.00,Wunderground v.1.15,2013-04-30 01:50:00,
2013-04-29 22:00:00,55.3,37.0,30.21,SE,145,1.0,1.0,50,0.00,,,0.00,Wunderground v.1.15,2013-04-30 02:00:00,
2013-04-29 22:09:00,55.1,37.3,30.21,SSE,156,1.0,10.0,51,0.00,,,0.00,Wunderground v.1.15,2013-04-30 02:09:00,
2013-04-29 22:19:00,55.0,38.2,30.21,SE,131,0.0,10.0,53,0.00,,,0.00,Wunderground v.1.15,2013-04-30 02:19:00,
2013-04-29 22:30:00,55.0,37.7,30.21,SE,126,1.0,1.0,52,0.00,,,0.00,Wunderground v.1.15,2013-04-30 02:30:00,
2013-04-29 22:40:00,54.8,37.0,30.21,ESE,113,0.0,10.0,51,0.00,,,0.00,Wunderground v.1.15,2013-04-30 02:40:00,
2013-04-29 22:49:00,54.7,37.4,30.22,ESE,113,0.0,10.0,52,0.00,,,0.00,Wunderground v.1.15,2013-04-30 02:49:00,
2013-04-29 23:00:00,54.7,36.4,30.22,SE,126,1.0,10.0,50,0.00,,,0.00,Wunderground v.1.15,2013-04-30 03:00:00,
2013-04-29 23:10:00,54.5,35.7,30.22,ESE,107,1.0,1.0,49,0.00,,,0.00,Wunderground v.1.15,2013-04-30 03:10:00,
2013-04-29 23:20:00,54.7,35.4,30.22,ESE,107,0.0,10.0,48,0.00,,,0.00,Wunderground v.1.15,2013-04-30 03:20:00,
2013-04-29 23:29:00,54.5,35.2,30.22,ESE,107,1.0,1.0,48,0.00,,,0.00,Wunderground v.1.15,2013-04-30 03:29:00,
2013-04-29 23:39:00,54.4,34.0,30.22,SE,145,0.0,10.0,46,0.00,,,0.00,Wunderground v.1.15,2013-04-30 03:39:00,
2013-04-29 23:50:00,54.4,34.6,30.22,SSE,149,1.0,1.0,47,0.00,,,0.00,Wunderground v.1.15,2013-04-30 03:50:00,